Location: Newark
(48.8511°N, 7.0794°E)
Time: 04:14:02
(UTC+00:00)

N. Korean satellite - Visible Passes

Search period start: 18 November 2019 00:00
Search period end: 28 November 2019 00:00
Orbit: 456 x 506 km, 97.2° (Epoch: 17 November)

Date Brightness Start Highest point End Pass type
(mag) Time Alt. Az. Time Alt. Az. Time Alt. Az.
18 Nov 8.4 05:00:14 10° NNE 05:03:41 35° E 05:07:04 10° SSE visible
18 Nov 8.9 17:12:48 10° SSW 17:15:59 28° W 17:19:13 10° NW visible
19 Nov 9.6 04:35:25 10° NE 04:38:07 19° E 04:40:48 10° SE visible
19 Nov 7.2 06:08:12 10° N 06:11:40 37° WNW 06:15:05 10° SW visible
19 Nov 7.5 16:46:54 10° S 16:50:29 55° W 16:54:09 10° NNW visible
20 Nov 10.4 04:12:14 10° E 04:12:28 10° E 04:12:43 10° E visible
20 Nov 6.5 05:42:38 10° N 05:46:21 74° WNW 05:50:00 10° SSW visible
20 Nov 6.6 16:21:26 10° SSE 16:25:05 74° ENE 16:28:48 10° N visible
21 Nov 7.4 05:17:17 10° NNE 05:20:57 55° E 05:24:33 10° S visible
21 Nov 9.7 17:30:40 10° SW 17:33:19 19° W 17:36:00 10° NW visible
22 Nov 8.8 04:52:12 10° NE 04:55:28 28° E 04:58:39 10° SSE visible
22 Nov 8.5 17:04:23 10° SSW 17:07:45 34° W 17:11:11 10° NNW visible
23 Nov 9.8 04:27:35 10° NE 04:29:51 15° E 04:32:06 10° SE visible
23 Nov 6.9 05:59:57 10° N 06:03:31 46° WNW 06:07:00 10° SW visible
23 Nov 7.0 16:38:37 10° S 16:42:16 69° WSW 16:46:00 10° NNW visible
24 Nov 6.6 05:34:27 10° NNE 05:38:10 89° ESE 05:41:48 10° SSW visible
24 Nov 6.7 16:13:16 10° SSE 16:16:54 60° ENE 16:20:35 10° N visible
24 Nov 10.1 17:49:04 10° WSW 17:50:40 12° W 17:52:18 10° WNW visible
25 Nov 7.9 05:09:10 10° NNE 05:12:43 44° E 05:16:12 10° S visible
25 Nov 9.3 17:22:04 10° SSW 17:25:02 23° W 17:28:02 10° NW visible
26 Nov 9.2 04:44:10 10° NE 04:47:11 23° E 04:50:07 10° SSE visible
26 Nov 7.4 06:17:21 10° N 06:20:35 29° WNW 06:23:47 10° SW visible
26 Nov 8.0 16:55:58 10° S 16:59:30 42° W 17:03:04 10° NNW visible
27 Nov 10.1 04:19:53 10° ENE 04:21:33 13° E 04:23:10 10° ESE visible
27 Nov 6.6 05:51:41 10° N 05:55:18 56° WNW 05:58:51 10° SSW visible
27 Nov 6.7 16:30:21 10° SSE 16:34:02 86° WSW 16:37:48 10° NNW visible
